Location: Acheville
(50.3840°N, 2.8827°E)
Time: 19:23:56
(UTC+00:00)

Cosmos 1844 Rocket - Pass Details

Date: 24 October 2021
Orbit: 826 x 843 km, 71.0° (Epoch: 07 December)

Event Time Altitude Azimuth Distance (km) Brightness Sun altitude
Rises 19:03:29 0° 327° (NNW) 3,376 6.5 -23.7°
Reaches altitude 10° 19:05:59 10° 322° (NW) 2,438 5.7 -24.1°
Maximum altitude 19:11:19 48° 250° (WSW) 1,078 3.5 -24.9°
Enters shadow 19:15:36 16° 181° (S) 2,061 4.6 -25.6°
